Tindouf, Algeria

12:11 PM CET en Diciembre 16, 2018 (GMT +0100)
Tindouf

Tiempo Historia de DAOF - Marzo, 2018

Change the Weather History Date:

Miércoles, Marzo 14, 2018

  Actual Average Record
Temperature  
Temperatura media 72 ° F -  
Temperatura máxima 88 ° F - - ()
Temperatura mínima 55 ° F - - ()
Cooling Degree Days 6    
Growing Degree Days 22 (Base 50)    
Moisture  
Punto de rocío 33 ° F    
Average Humidity 26    
Maximum Humidity 51    
Minimum Humidity 4    
Precipitación  
Precipitación 0.00 pul - - ()
Presión al nivel del mar  
Presión al nivel del mar 29.99 pul    
Viento  
Velocidad del viento 11 mph ()    
Velocidad máxima del viento 15 mph    
Max Gust Speed -    
Visibilidad 6.0 Millas    
Eventos      
T = Trace of Precipitation, MM = Missing Value Source: Averaged Metar Reports

Daily Weather History Graph

Daily Weather History Graph

Search for Another Location

Airport or City:

Astronomía

Mar. 14, 2018 Salida Puesta
Hora real 7:43 AM CET 7:40 PM CET
Crepúsculo civil 7:19 AM CET 8:03 PM CET
Crepúsculo náutico 6:52 AM CET 8:30 PM CET
Crepúsculo astronómico 6:25 AM CET 8:58 PM CET
Luna 5:51 AM CET (3/14) 5:04 PM CET (3/14)
Horas de luz 12h 43m
Horas de luz
11h 57m
Creciente menguante, 9% of the Moon is Illuminated
Mar 14
Creciente menguante
Mar 17
Nueva
Mar 24
Cuarto creciente
Mar 31
Luna llena
Abr 8
Cuarto menguante

Hourly Weather History & Observations

Hora (CET) Temp. Punto de rocío Humedad Presión Visibilidad Wind Dir Velocidad del viento Velocidad de ráfagas Precip Eventos Condiciones
12:00 AM 68.0 ° F 42.8 ° F 40% 30.04 pul - Oeste 11.5 mph - N/A   Despejado
1:00 AM 66.2 ° F 41.0 ° F 40% 30.04 pul - Oeste 12.7 mph - N/A   Despejado
2:00 AM 64.4 ° F 41.0 ° F 42% 30.01 pul - Oeste 11.5 mph - N/A   Despejado
3:00 AM 62.6 ° F 39.2 ° F 42% 30.01 pul - ONO 15.0 mph - N/A   Despejado
4:00 AM 61 ° F 40 ° F 33% 29.94 pul 6 mi ONO 13.8 mph - -  
4:00 AM 60.8 ° F 39.2 ° F 45% 29.98 pul - ONO 13.8 mph - N/A   Despejado
5:00 AM 60.8 ° F 39.2 ° F 45% 29.98 pul - ONO 15.0 mph - N/A   Despejado
6:00 AM 59.0 ° F 39.2 ° F 48% 29.98 pul - Oeste 13.8 mph - N/A   Despejado
7:00 AM 56 ° F 37 ° F 37% 29.95 pul 6 mi ONO 13.8 mph - -  
7:00 AM 55.4 ° F 37.4 ° F 51% 30.01 pul - ONO 13.8 mph - N/A   Despejado
8:00 AM 55.4 ° F 37.4 ° F 51% 30.01 pul - ONO 15.0 mph - N/A   Despejado
9:00 AM 59.0 ° F 33.8 ° F 39% 30.04 pul - ONO 9.2 mph - N/A   Despejado
10:00 AM 65 ° F 38 ° F 26% 30.01 pul 6 mi ONO 15.0 mph - -  
10:00 AM 66.2 ° F 39.2 ° F 37% 30.06 pul - ONO 15.0 mph - N/A   Despejado
11:00 AM 73.4 ° F 37.4 ° F 27% 30.06 pul - ONO 12.7 mph - N/A   Despejado
12:00 PM 78.8 ° F 33.8 ° F 20% 30.06 pul - ONO 11.5 mph - N/A   Despejado
1:00 PM 82 ° F 33 ° F 9% 29.98 pul 6 mi Oeste 9.2 mph - -  
1:00 PM 78.8 ° F 33.8 ° F 20% 30.06 pul - ONO 11.5 mph - N/A   Despejado
2:00 PM 86.0 ° F 26.6 ° F 12% 30.01 pul - Oeste 5.8 mph - N/A   Despejado
3:00 PM 87.8 ° F 24.8 ° F 10% 29.98 pul - OSO 6.9 mph - N/A   Despejado
4:00 PM 88 ° F 24 ° F 4% 29.89 pul 6 mi OSO 8.1 mph - -  
4:00 PM 87.8 ° F 23.0 ° F 9% 29.95 pul - OSO 8.1 mph - N/A   Despejado
5:00 PM 87.8 ° F 23.0 ° F 9% 29.95 pul - Oeste 5.8 mph - N/A   Despejado
6:00 PM 87.8 ° F 23.0 ° F 9% 29.92 pul - ONO 10.4 mph - N/A   Despejado
7:00 PM 86 ° F 24 ° F 4% 29.89 pul 6 mi Oeste 13.8 mph - -  
7:00 PM 86.0 ° F 23.0 ° F 10% 29.92 pul - Oeste 13.8 mph - N/A   Despejado
8:00 PM 80.6 ° F 24.8 ° F 13% 29.95 pul - Oeste 13.8 mph - N/A   Despejado
10:00 PM 73 ° F 33 ° F 13% 29.95 pul 6 mi Oeste 15.0 mph - -   Despejado
10:00 PM 73.4 ° F 33.8 ° F 23% 29.98 pul - Oeste 15.0 mph - N/A   Despejado
11:00 PM 71.6 ° F 33.8 ° F 25% 29.98 pul - Oeste 15.0 mph - N/A   Despejado